Probability
0 0 0 0 0 0 0 0 0 0 0 0 0 0 0 0 0 0 0 0 0 0 0 0 0 0 0 0 0 0 0 0 0 0 0 0 0 0 0 0 0 0 0
0 0 0 0 0 0 0 0 0 0 0 0 0 0 0 0 0 0 0 0 0 0 0 0 0 0 0 0 0 0 0 0 0 0 0 0 0 0 0 0 0 0 0
0 0 0 0 0 0 0 0 0 0 0 0 0 0 0 0 0 0 0 0 0 0 0 0 0 0 0 0 0 0 0 0 0 0 0 0 0 0 0 0 0 0 0
0 0 0 0 0 0 0 0 0 0 0 0 0 0 0 0 0 0 0 0 0 0 0 0 0 0 0 0 0 0 0 0 0 0 0 0 0 0 0 0 0 0 0
0 0 0 0 0 0 0 0 0 0 0 0 0 0 0 0 0 0 0 0 0 0 0 0 0 0 0 0 0 0 0 0 0 0 0 0 0 0 0 0 0 0 0
0 0 0 0 0 0 0 0 0 0 0 0 0 0 0 0 0 0 0 0 0 0 0 0 0 0 0 0 0 0 0 0 0 0 0 0 0 0 0 0 0 0 0
0 0 0 0 0 0 0 0 0 0 0 0 0 0 0 0 0 0 0 0 0 0 0 0 0 0 0 0 0 0 0 0 0 0 0 0 0 0 0 0 0 0 0
0 0 0 0 0 0 0 0 0 0 0 0 0 0 0 0 0 0 0 0 0 0 0 0 0 0 0 0 0 0 0 0 0 0 0 0 0 0 0 0 0 0 0
0 0 0 0 0 0 0 0 0 0 0 0 0 0 0 0 0 0 0 0 0 0 0 0 0 0 0 0 0 0 0 0 0 0 0 0 0 0 0 0 0 0 0
0 0 0 0 0 0 0 0 0 0 0 0 0 0 0 0 0 0 0 0 0 0 0 0 0 0 0 0 0 0 0 0 0 0 0 0 0 0 0 0 0 0 0
0 0 0 0 0 0 0 0 0 0 0 0 0 0 0 0 0 0 0 0 0 0 0 0 0 0 0 0 0 0 0 0 0 0 0 0 0 0 0 0 0 0 0
0 0 0 0 0 0 0 0 0 0 0 0 0 0 0 0 0 0 0 0 0 0 0 0 0 0 0 0 0 0 0 0 0 0 0 0 0 0 0 0 0 0 0
0 0 0 0 0 0 0 0 0 0 0 0 0 0 0 0 0 0 0 0 0 0 0 0 0 0 0 0 0 0 0 0 0 0 0 0 0 0 0 0 0 0 0
0 0 0 0 0 0 0 0 0 0 0 0 0 0 0 0 0 0 0 0 0 0 0 0 0 0 0 0 0 0 0 0 0 0 0 0 0 0 0 0 0 0 0
0 0 0 0 0 0 0 0 0 0 0 0 0 0 0 0 0 0 0 0 0 0 0 0 0 0 0 0 0 0 0 0 0 0 0 0 0 0 0 0 0 0 0
0 0 0 0 0 0 0 0 0 0 0 0 0 0 0 0 0 0 0 0 0 0 0 0 0 0 0 0 0 0 0 0 0 0 0 0 0 0 0 0 0 0 0
0 0 0 0 0 0 0 0 0 0 0 0 0 0 0 0 0 0 0 0 0 0 0 0 0 0 0 0 0 0 0 0 0 0 0 0 0 0 0 0 0 0 0
0 0 0 0 0 0 0 0 0 0 0 0 0 0 0 0 0 0 0 0 0 0 0 0 0 0 0 0 0 0 0 0 0 0 0 0 0 0 0 0 0 0 0
0 0 0 0 0 0 0 0 0 0 0 0 0 0 0 0 0 0 0 0 0 0 0 0 0 0 0 0 0 0 0 0 0 0 0 0 0 0 0 0 0 0 0
0 0 0 0 0 0 0 0 0 0 0 0 0 0 0 0 0 0 0 0 0 0 0 0 0 0 0 0 0 0 0 0 0 0 0 0 0 0 0 0 0 0 0
0 0 0 0 0 0 0 0 0 0 0 0 0 0 0 0 0 0 0 0 0 0 0 0 0 0 0 0 0 0 0 0 0 0 0 0 0 0 0 0 0 0 0
0 0 0 0 0 0 0 0 0 0 0 0 0 0 0 0 0 0 0 0 0 0 0 0 0 0 0 0 0 0 0 0 0 0 0 0 0 0 0 0 0 0 0
0 0 0 0 0 0 0 0 0 0 0 0 0 0 0 0 0 0 0 0 0 0 0 0 0 0 0 0 0 0 0 0 0 0 0 0 0 0 0 0 0 0 0
0 0 0 0 0 0 0 0 0 0 0 0 0 0 0 0 0 0 0 0 0 0 0 0 0 0 0 0 0 0 0 0 0 0 0 0 0 0 0 0 0 0 0
0 0 0 0 0 0 0 0 0 0 0 0 0 0 0 0 0 0 0 0 0 0 0 0 0 0 0 0 0 0 0 0 0 0 0 0 0 0 0 0 0 0 0
0 0 0 0 0 0 0 0 0 0 0 0 0 0 0 0 0 0 0 0 0 0 0 0 0 0 0 0 0 0 0 0 0 0 0 0 0 0 0 0 0 0 0
Wind_Speed
3 3 2 2 2 2 2 2 2 3 3 3 3 4 5 5 5 4 4 11 14 15 17 17 18 18 18 17 17 17 17 16 16 16 16 16 17 17 17 17 17 17 17
3 3 2 2 2 2 2 2 3 3 3 3 4 4 5 5 5 5 4 7 12 14 16 17 17 18 18 18 18 17 17 17 17 17 17 17 17 17 18 18 18 18 19
3 3 2 2 2 2 2 1 2 1 2 2 4 4 4 4 5 5 5 4 5 10 14 15 15 16 16 16 17 17 17 17 17 17 17 17 18 18 18 19 19 20 20
3 2 2 1 1 1 1 1 1 1 2 2 3 4 4 4 5 5 4 4 3 4 7 12 13 14 15 15 16 16 17 17 17 18 18 18 18 18 19 20 20 20 20
2 2 1 1 1 1 0 0 0 1 2 3 3 4 4 4 5 5 4 4 4 4 3 7 11 12 14 16 16 17 17 17 18 18 19 19 19 19 19 20 20 21 21
3 2 2 1 2 1 1 1 1 1 1 2 4 4 5 5 4 3 4 3 3 3 3 4 4 7 13 16 17 17 18 18 19 19 19 19 20 20 20 20 21 21 22
3 3 2 2 2 2 1 1 1 1 2 2 3 4 4 4 3 3 2 3 4 4 4 4 3 3 5 13 16 18 19 20 20 20 20 20 21 21 21 22 22 22 22
3 3 3 2 2 2 2 2 1 1 1 2 1 2 5 6 4 3 3 3 4 3 4 5 5 6 5 4 11 19 20 21 21 21 21 22 22 22 22 23 23 23 23
3 3 3 3 2 2 1 1 1 1 1 2 0 1 1 4 5 4 4 3 3 3 4 5 6 7 7 6 6 12 19 21 22 22 22 22 23 23 23 23 24 24 24
3 3 3 3 2 2 1 1 0 1 1 1 2 1 3 3 3 5 4 3 4 5 5 6 7 7 8 6 10 17 21 22 22 23 23 23 23 24 24 24 24 24 24
3 3 3 3 2 1 1 1 1 0 1 2 2 2 2 2 4 5 7 5 4 4 5 6 6 7 8 7 6 12 21 22 23 23 23 24 24 24 25 25 25 25 24
2 3 2 2 2 1 1 1 1 1 2 2 2 3 3 3 3 4 6 6 7 4 5 6 6 6 6 6 9 19 22 23 23 24 24 24 25 25 25 25 25 25 25
1 1 1 1 1 1 1 1 1 2 2 3 3 3 3 4 4 4 6 7 7 5 5 4 5 5 7 5 7 19 20 23 24 25 25 25 25 25 25 25 26 26 25
1 1 0 0 1 1 1 1 1 2 2 3 4 4 4 4 4 4 4 5 8 5 4 5 4 5 5 5 11 21 13 22 24 25 25 25 25 25 25 25 25 26 26
2 1 1 1 1 2 2 2 2 3 3 4 5 5 4 4 4 5 5 4 5 9 8 5 4 4 5 6 14 10 8 19 25 25 25 25 25 25 25 25 25 25 25
2 1 1 2 2 3 3 3 3 4 4 5 4 5 5 5 5 5 5 5 6 8 10 4 5 6 9 10 17 12 10 24 24 24 25 25 24 25 25 25 25 25 25
2 2 2 3 3 4 4 3 4 5 5 6 6 6 7 7 5 5 5 5 6 6 12 10 5 6 8 10 12 10 10 9 11 22 24 24 24 24 24 24 24 24 24
3 3 3 3 4 4 4 5 6 6 6 7 7 7 8 6 7 6 5 7 7 7 9 14 8 6 8 9 10 11 11 10 8 19 24 24 24 24 23 23 23 23 23
3 3 3 4 5 5 5 6 6 7 7 7 8 8 8 8 8 7 7 7 7 8 8 11 12 7 6 7 9 9 10 9 10 14 20 21 22 23 23 23 22 22 21
4 4 4 5 5 6 6 7 7 7 8 8 8 9 9 9 10 9 8 9 9 9 9 10 11 8 7 7 6 7 9 6 8 9 14 16 20 23 23 23 22 21 20
4 4 5 5 6 5 6 7 7 8 8 9 9 9 9 12 15 13 11 8 8 8 8 9 10 9 7 5 6 6 9 8 8 8 8 9 9 8 10 15 19 20 20
4 4 5 6 7 6 12 17 13 7 7 8 8 8 9 12 15 20 22 21 18 12 10 9 10 10 10 8 7 8 9 10 9 4 5 7 6 7 7 6 15 21 21
4 5 6 6 7 10 17 18 19 12 8 7 8 8 9 9 15 9 15 21 19 22 21 15 13 12 11 9 9 11 10 11 11 6 6 9 6 9 7 10 20 21 21
5 5 6 7 7 10 18 19 20 12 8 8 8 9 10 10 10 12 11 11 11 12 15 11 10 12 11 11 11 12 12 11 9 7 6 8 7 7 8 6 16 20 20
5 6 6 7 8 11 17 20 20 8 7 9 9 9 10 10 17 22 15 12 11 10 15 20 21 19 21 20 15 8 6 7 8 6 4 5 5 6 6 7 10 16 16
6 6 7 7 8 10 16 20 20 7 8 8 8 8 15 17 20 23 13 10 12 11 9 10 11 13 11 11 16 8 5 7 7 6 3 3 4 4 5 4 3 4 5
Wind_Direction
198 203 212 216 227 226 229 242 254 266 272 274 269 266 272 271 268 263 270 287 296 300 303 305 305 305 303 302 300 298 295 293 290 288 286 282 278 274 271 269 266 264 263
191 196 210 218 227 226 229 234 248 261 270 274 279 275 272 274 271 270 265 282 293 300 305 307 307 307 305 303 302 301 300 298 295 293 290 287 287 285 279 272 268 265 263
187 188 201 224 237 231 235 250 267 266 276 282 283 284 279 274 273 273 274 269 283 297 305 311 313 313 312 311 309 307 306 304 301 298 294 291 287 285 285 283 278 270 265
172 173 187 220 228 183 182 235 268 286 287 291 290 289 284 280 277 277 278 280 280 286 303 314 321 325 325 322 319 315 313 309 306 301 297 294 291 288 286 283 282 280 275
145 147 155 177 123 108 79 343 354 277 295 304 294 285 281 277 280 288 289 290 290 290 290 312 324 330 331 328 325 321 317 313 309 306 302 298 293 290 288 286 284 281 279
97 106 102 83 83 84 50 29 345 317 291 302 301 296 285 286 291 289 291 298 298 302 307 305 315 323 328 328 326 324 318 313 310 306 302 299 295 292 289 287 284 283 281
87 96 95 77 73 79 61 34 20 355 335 342 341 322 311 309 313 292 289 304 312 316 319 312 306 304 312 319 320 318 315 311 307 303 301 297 294 291 288 285 282 280 279
79 92 95 88 78 77 54 44 48 19 338 9 15 339 334 334 333 319 320 308 305 320 319 315 312 305 297 293 300 311 312 308 304 301 298 295 292 290 287 285 283 280 278
74 85 91 93 84 89 75 40 73 98 307 318 258 209 318 297 304 302 299 292 297 306 304 305 298 293 291 288 291 302 303 304 302 299 296 294 291 289 287 285 282 281 279
65 76 88 91 89 87 68 2 76 176 190 280 300 246 228 232 278 304 299 287 287 288 287 291 290 288 285 283 284 295 301 301 298 297 296 294 292 290 287 285 284 282 281
58 69 83 84 79 73 53 11 354 238 208 224 239 253 262 255 233 258 286 294 291 262 267 273 277 279 280 279 280 288 297 298 297 297 296 295 294 292 289 287 286 285 284
54 55 77 79 76 66 21 323 284 266 243 240 240 229 227 240 241 243 269 288 292 277 268 263 268 273 278 280 284 296 300 300 298 296 295 294 292 291 290 288 287 285 284
99 40 63 60 47 351 310 295 280 277 258 250 249 244 237 238 239 246 268 283 284 284 272 261 259 273 284 284 293 302 302 300 298 296 294 293 291 289 288 286 285 284 283
186 190 145 311 302 301 298 289 274 270 259 258 261 257 252 252 244 241 250 281 296 286 260 263 270 266 278 288 293 302 297 298 297 295 294 292 290 288 285 284 282 281 281
192 188 208 268 286 285 281 278 265 271 269 260 259 259 254 253 249 246 244 242 264 291 292 252 258 268 281 289 291 291 282 292 296 294 293 292 290 288 286 284 282 280 278
192 205 244 264 277 281 279 273 269 268 268 266 258 259 257 255 253 250 246 245 239 263 283 261 258 270 281 288 292 293 289 295 298 297 294 292 289 287 285 284 282 281 279
210 228 246 260 271 276 276 271 270 272 268 270 269 263 262 260 258 255 249 248 249 251 275 282 260 264 266 274 283 284 284 282 284 290 292 291 289 287 285 283 282 280 279
227 237 249 261 268 270 269 266 271 273 268 269 269 267 266 267 260 257 254 253 254 249 264 283 284 272 263 266 271 276 283 283 279 287 291 291 289 289 287 285 284 281 279
239 250 252 260 266 269 269 265 262 265 262 261 262 262 264 263 266 262 257 259 260 263 259 273 283 277 270 269 273 274 274 276 279 284 289 291 290 290 288 288 287 285 284
241 253 256 260 264 268 269 268 265 263 261 260 259 257 258 256 261 264 265 260 261 263 263 269 279 282 275 266 266 276 283 272 274 280 283 284 286 288 289 291 291 290 290
246 253 263 270 270 270 265 264 259 256 257 261 260 256 256 264 269 274 276 268 262 265 271 276 281 283 279 274 270 272 283 285 274 267 270 273 276 274 277 282 286 286 284
259 261 263 267 273 275 286 291 291 272 261 262 266 264 263 273 280 285 288 291 287 282 279 276 280 280 282 276 276 278 283 287 287 250 255 270 265 268 266 255 271 276 277
260 266 266 265 267 275 289 294 295 291 272 265 266 269 274 274 287 278 283 287 286 283 282 280 279 280 280 277 276 279 276 276 278 276 275 279 268 269 267 269 277 278 278
256 262 266 267 269 277 292 297 298 293 275 268 264 263 267 271 270 278 269 267 262 265 270 273 265 268 270 270 265 271 279 282 275 267 256 273 274 270 273 267 276 279 280
261 260 262 267 271 280 292 298 298 284 274 270 266 264 269 268 276 286 286 279 275 269 276 277 276 279 283 290 291 290 289 291 291 282 243 254 272 278 276 270 272 280 284
261 268 270 266 268 273 287 295 296 283 278 277 270 263 276 282 286 290 286 278 280 279 272 273 277 284 287 289 293 288 279 283 288 287 259 253 273 288 289 273 276 290 293